Regional Weather Roundup
Issued by NWS

Home | Current Version | Previous Version | Text Only | Print | Product List | Glossary On
Versions: 1 2 3 4 5 6 7 8 9 10 11 12 13 14 15 16 17 18 19 20 21 22 23 24 25 26 27 28 29 30 31 32 33 34 35 36 37 38 39 40 41 42 43 44 45 46 47 48 49 50
000
ASUS46 KPQR 111510
RWROR

OREGON REGIONAL WEATHER ROUNDUP
NATIONAL WEATHER SERVICE PORTLAND OR
700 AM PST MON DEC 11 2017

NOTE: "FAIR" INDICATES FEW OR NO CLOUDS BELOW 12,000 FEET WITH
NO SIGNIFICANT WEATHER AND/OR OBSTRUCTIONS TO VISIBILITY.

ORZ001>013-111600-
NORTHWEST OREGON


CITY           SKY/WX    TMP DP  RH WIND       PRES   REMARKS
ASTORIA        CLEAR     38  27  64 E10       30.27S WCI  31
NEWPORT        CLEAR     39  28  65 E17       30.29R WCI  30
PORTLAND       CLEAR     34  25  69 E10       30.40R WCI  26
VANCOUVER WA   CLEAR     27  23  85 CALM      30.40S
SCAPPOOSE      CLEAR     23  21  92 W5        30.41R WCI  17
HILLSBORO      CLEAR     23  20  88 W3        30.40S
AURORA         CLEAR     23  21  92 S5        30.40R WCI  17
MCMINNVILLE    CLEAR     31  24  75 N7        30.40R WCI  24
SALEM          CLEAR     23  20  88 SE3       30.38S
CORVALLIS      CLEAR     20  18  92 CALM      30.40R
EUGENE         FOG       26  23  88 CALM      30.39R VSB 1/8
$$

ORZ021-028-111600-
SOUTHWEST OREGON


CITY           SKY/WX    TMP DP  RH WIND       PRES   REMARKS
NORTH BEND     CLEAR     38  32  79 SE10      30.28S WCI  31
BROOKINGS      CLEAR     42  33  70 E3        30.26R
ROSEBURG       FOG       31  30  96 NE3       30.37R VSB 3/4
SEXTON SUMMIT  CLEAR     47   7  19 SE13      30.33R
GRANTS PASS    FOG       28  27  93 E3        30.45R VSB 1/4
MEDFORD        FOG       22  21  96 CALM      30.40R VSB 1/4
$$

ORZ014>016-041-111600-
COLUMBIA GORGE


CITY           SKY/WX    TMP DP  RH WIND       PRES   REMARKS
TROUTDALE      CLEAR     37  24  59 E20G33    30.41R WCI  27
HOOD RIVER     CLOUDY    32  27  80 CALM      30.67S
THE DALLES     CLOUDY    33  24  69 SE9       30.70S WCI  25
$$

ORZ029>031-041-044-049-050-061>064-502-503-505>511-111600-
EASTERN OREGON


CITY           SKY/WX    TMP DP  RH WIND       PRES   REMARKS
MADRAS         CLOUDY   N/A N/A N/A NE3       30.58R
REDMOND        CLOUDY    18  16  92 S3        30.52R FOG
BEND           FOG       10   9  92 CALM      30.51R VSB 1/4
PRINEVILLE     FOG       12  10  92 CALM      30.52S VSB 1/4
KLAMATH FALLS  PTCLDY    22  18  85 NE6       30.45R WCI  14
LAKEVIEW       CLEAR      8   5  87 N5        30.46R WCI   0
HERMISTON      CLOUDY    31  27  85 CALM      30.68R
PENDLETON      CLOUDY    27  26  96 CALM      30.62R
JOHN DAY       PTCLDY    24  17  74 E7        30.48S WCI  16
MEACHAM        PTCLDY    22  15  75 CALM      30.46F
LA GRANDE      PTCLDY    19  16  88 N12       30.60F WCI   7
BAKER CITY     CLOUDY    18  13  80 CALM      30.62S
BURNS          CLOUDY    17  14  88 NE3       30.58R
ROME             N/A     17  12  80 SE3       30.59S
ONTARIO        CLOUDY    29  24  82 SE3       30.73R
$$



USA.gov is the U.S. government's official web portal to all federal, state and local government web resources and services.